Regional Weather Roundup
Issued by NWS

Home | Current Version | Previous Version | Text Only | Print | Product List | Glossary On
Versions: 1 2 3 4 5 6 7 8 9 10 11 12 13 14 15 16 17 18 19 20 21 22 23 24 25 26 27
000
ASUS45 KBOI 231810
RWRID
WEATHER ROUNDUP FOR IDAHO
NATIONAL WEATHER SERVICE BOISE ID
1200 PM MDT THU OCT 23 2014

NOTE: "FAIR" INDICATES FEW OR NO CLOUDS BELOW 12000 FEET
WITH NO SIGNIFICANT WEATHER AND/OR OBSTRUCTIONS TO VISIBILITY

IDZ012-014-231900-
SOUTHWEST IDAHO


CITY           SKY/WX    TMP DP  RH WIND       PRES   REMARKS
BOISE          CLOUDY    57  47  69 SE10      30.02F
CALDWELL       CLOUDY    55  39  54 S7        30.06R
MOUNTAIN HOME  PTSUNNY   59  39  47 SW6       30.07F
$$

IDZ016-017-231900-
SOUTHCENTRAL IDAHO


CITY           SKY/WX    TMP DP  RH WIND       PRES   REMARKS
BURLEY         PTSUNNY   60  35  39 W9        30.12R
JEROME         CLOUDY    57  31  37 CALM      30.13S
TWIN FALLS     CLOUDY    62  35  36 NW5       30.13R
$$

IDZ019>023-231900-
SOUTHEAST IDAHO


CITY           SKY/WX    TMP DP  RH WIND       PRES   REMARKS
IDAHO FALLS    CLOUDY    56  31  38 SW8       30.14S
POCATELLO      SUNNY     63  28  26 SW13      30.13R
REXBURG        CLOUDY    51  29  42 W5        30.14R
$$

IDZ006-010-011-018-031-032-231900-
CENTRAL IDAHO MOUNTAINS


CITY           SKY/WX    TMP DP  RH WIND       PRES   REMARKS
MCCALL         LGT RAIN  45  42  89 SE14      30.04S
HAILEY         CLOUDY    54  37  54 N5        30.15F
STANLEY          N/A     47  38  71 S10       30.12F
SALMON         CLOUDY    57  39  51 S7        30.01
CHALLIS        CLOUDY    56  37  49 CALM      30.06F
$$

IDZ002-004-006-007-026-231900-
NORTHERN IDAHO


CITY           SKY/WX    TMP DP  RH WIND       PRES   REMARKS
LEWISTON       PTSUNNY   60  49  66 MISG      29.80S
LOWELL           N/A     51  49  92 CALM      29.91S
COEUR D`ALENE  CLOUDY    52  48  87 S10       29.79F
MULLAN PASS    RAIN      40  40 100 SW9G23    29.86S VSB 1/2 WCI  34
$$



USA.gov is the U.S. government's official web portal to all federal, state and local government web resources and services.